Lynchburg, VA

1:31 AM EST on November 20, 2019 (GMT -0500)
Lynchburg Regional-Glenn

Weather History for KLYH - September, 2019

Change the Weather History Date:

Tuesday, September 10, 2019

  Actual Average Record
Temperature  
Mean Temperature 77 °F 69 °F  
Max Temperature 88 °F 80 °F 98 °F (1900)
Min Temperature 66 °F 58 °F 43 °F (1914)
Degree Days  
Heating Degree Days 0 1  
Month to date heating degree days 0 3  
Since 1 July heating degree days 0 6  
Cooling Degree Days 12 5  
Month to date cooling degree days 118 60  
Year to date cooling degree days 1333 958  
Growing Degree Days 26 (Base 50)    
Moisture  
Dew Point 66 °F    
Average Humidity 72    
Maximum Humidity 93    
Minimum Humidity 51    
Precipitation  
Precipitation 0.00 in 0.13 in 1.47 in (1997)
Month to date precipitation T 1.31  
Year to date precipitation 27.58 29.24  
Snow  
Snow 0.00 in - - ()
Month to date snowfall 0.0  
Since 1 July snowfall 0.0  
Since 1 September snowfall 0.0  
Snow Depth 0.00 in    
Sea Level Pressure  
Sea Level Pressure 30.28 in    
Wind  
Wind Speed 3 mph (SE)    
Max Wind Speed 10 mph    
Max Gust Speed 14 mph    
Visibility 10 miles    
Events      
T = Trace of Precipitation, MM = Missing Value Source: NWS Daily Summary

Daily Weather History Graph

Daily Weather History Graph

Search for Another Location

Airport or City:

Astronomy

Sep. 10, 2019 Rise Set
Actual Time 6:54 AM EDT 7:32 PM EDT
Civil Twilight 6:28 AM EDT 7:58 PM EDT
Nautical Twilight 5:57 AM EDT 8:29 PM EDT
Astronomical Twilight 5:25 AM EDT 9:01 PM EDT
Moon 6:02 PM EDT (9/10) 3:24 AM EDT (9/10)
Length of Visible Light 13h 30m
Length of Day
12h 37m
Waxing Gibbous, 89% of the Moon is Illuminated
Sep 10
Waxing Gibbous
Sep 14
Full
Sep 21
Last Quarter
Sep 28
New
Oct 5
First Quarter

Hourly Weather History & Observations

Time (EDT) Temp. Heat Index Dew Point Humidity Pressure Visibility Wind Dir Wind Speed Gust Speed Precip Events Conditions
12:54 AM 70.0 °F - 66.0 °F 87% 30.23 in 10.0 mi Calm Calm - N/A   Scattered Clouds
1:54 AM 68.0 °F - 66.0 °F 93% 30.25 in 10.0 mi Calm Calm - N/A   Clear
2:21 AM 68.0 °F - 66.0 °F 93% 30.27 in 10.0 mi Calm Calm - N/A   Scattered Clouds
2:54 AM 68.0 °F - 66.0 °F 93% 30.25 in 10.0 mi NNE 3.5 mph - N/A   Scattered Clouds
3:47 AM 66.9 °F - 66.0 °F 97% 30.28 in 9.0 mi Calm Calm - N/A   Mostly Cloudy
3:54 AM 66.0 °F - 64.9 °F 96% 30.25 in 9.0 mi Calm Calm - N/A   Mostly Cloudy
4:14 AM 66.9 °F - 66.0 °F 97% 30.28 in 10.0 mi Calm Calm - N/A   Overcast
4:54 AM 68.0 °F - 66.9 °F 96% 30.25 in 10.0 mi Calm Calm - N/A   Overcast
5:54 AM 69.1 °F - 66.9 °F 93% 30.28 in 10.0 mi Calm Calm - N/A   Overcast
6:54 AM 69.1 °F - 66.9 °F 93% 30.30 in 10.0 mi Calm Calm - N/A   Overcast
7:54 AM 71.1 °F - 66.9 °F 87% 30.32 in 10.0 mi Calm Calm - N/A   Overcast
8:54 AM 73.0 °F - 66.9 °F 81% 30.33 in 10.0 mi East 3.5 mph - N/A   Overcast
9:54 AM 73.9 °F - 66.9 °F 79% 30.34 in 10.0 mi Variable 3.5 mph - N/A   Mostly Cloudy
10:54 AM 78.1 °F - 66.0 °F 66% 30.34 in 10.0 mi Variable 3.5 mph - N/A   Mostly Cloudy
11:23 AM 78.8 °F - 66.2 °F 65% 30.36 in 10.0 mi South 4.6 mph - N/A   Mostly Cloudy
11:54 AM 80.1 °F 82.1 °F 66.0 °F 62% 30.33 in 10.0 mi Variable 3.5 mph - N/A   Mostly Cloudy
12:54 PM 82.0 °F 84.1 °F 66.0 °F 58% 30.31 in 10.0 mi South 5.8 mph - N/A   Overcast
1:54 PM 82.0 °F 84.1 °F 66.0 °F 58% 30.30 in 10.0 mi Variable 5.8 mph - N/A   Overcast
2:54 PM 84.9 °F 87.6 °F 66.9 °F 55% 30.28 in 10.0 mi SE 5.8 mph - N/A   Mostly Cloudy
3:54 PM 86.0 °F 88.8 °F 66.9 °F 53% 30.26 in 10.0 mi South 4.6 mph - N/A   Mostly Cloudy
4:54 PM 86.0 °F 88.2 °F 66.0 °F 51% 30.25 in 10.0 mi ESE 5.8 mph - N/A   Scattered Clouds
5:54 PM 86.0 °F 88.8 °F 66.9 °F 53% 30.25 in 10.0 mi ENE 4.6 mph - N/A   Partly Cloudy
6:54 PM 84.0 °F 86.5 °F 66.9 °F 56% 30.23 in 10.0 mi SE 3.5 mph - N/A   Clear
7:54 PM 75.9 °F - 68.0 °F 76% 30.24 in 10.0 mi Calm Calm - N/A   Clear
8:54 PM 73.9 °F - 68.0 °F 82% 30.25 in 10.0 mi Calm Calm - N/A   Partly Cloudy
9:54 PM 73.0 °F - 66.9 °F 81% 30.26 in 10.0 mi Calm Calm - N/A   Clear
11:54 PM 73.0 °F - 66.0 °F 79% 30.27 in 10.0 mi South 4.6 mph - N/A   Clear